Location: Heidgraben
(53.7081°N, 9.6576°E)
Time: 04:31:18
(UTC+00:00)

Cosmos 2221 - Pass Details

Date: 05 July 2020
Orbit: 592 x 616 km, 82.5° (Epoch: 06 August)

Event Time Altitude Azimuth Distance (km) Brightness Sun altitude
Rises 20:51:35 0° 351° (N) 2,902 7.3 -6.7°
Reaches altitude 10° 20:53:53 10° 357° (N) 1,990 6.2 -6.9°
Maximum altitude 20:58:10 49° 73° (ENE) 796 3.0 -7.2°
Drops below altitude 10° 21:02:24 10° 149° (SSE) 1,963 4.4 -7.6°
Enters shadow 21:02:29 10° 150° (SSE) 1,996 4.5 -7.6°
